Voltar ao catálogo

COSMOS 374 DEB

AtivoUNKNOWN
NORAD 4668·DEBRIS·🇷🇺 Russia

Lançado Oct 23, 1970 de Baikonur Cosmodrome

Loading…

Próximas Passagens (próximas 24 horas)

TLE

AtualizadoSource: Space-Track

Época: Sep 14, 2026, 10:44 UTC

1 04668U 70089L   26257.44746220 -.00000092  00000-0  20138-5 0  9990
2 04668  62.9756  46.5918 0947461 333.3908  22.1267 12.87152806621115

Acompanhe COSMOS 374 DEB em tempo real com AllMySat

Download on the App Store